| time (UTC) | temp F | wind direction | speed knots | gust knots | rain 1hr in | rain 24hr in | rain mn in | humidity % | barometer mb |
| 20260507110012 | 41 | 267 | 0.0 | 1.7 | 0.00 | 0.65 | 0.00 | 97 | 1007.1 |
| 20260507104518 | 40 | 29 | 0.0 | 1.7 | 0.00 | 0.65 | 0.00 | 97 | 1007.1 |
| 20260507103022 | 38 | 294 | 0.0 | 0.0 | 0.00 | 0.65 | 0.00 | 97 | 1007.0 |
| 20260507101520 | 0 | 0.0 | 0.0 | 0.00 | 0.65 | 0.00 | 1006.9 | ||
| 20260507100022 | 0 | 0.0 | 0.0 | 0.00 | 0.65 | 0.00 | 1006.9 | ||
| 20260507094523 | 0 | 0.0 | 0.0 | 0.00 | 0.65 | 0.00 | 1007.0 | ||
| 20260507093024 | 0 | 0.0 | 0.0 | 0.00 | 0.65 | 0.00 | 1007.1 | ||
| 20260507091534 | 0 | 0.0 | 0.0 | 0.00 | 0.65 | 0.00 | 1007.2 | ||
| 20260507090032 | 0 | 0.0 | 0.0 | 0.00 | 0.65 | 0.00 | 1007.3 | ||
| 20260507084538 | 0 | 0.0 | 0.0 | 0.00 | 0.65 | 0.00 | 1007.0 | ||
| 20260507083023 | 0 | 0.0 | 0.0 | 0.00 | 0.65 | 0.00 | 1007.0 | ||
| 20260507081525 | 0 | 0.0 | 0.0 | 0.00 | 0.65 | 0.00 | 1007.1 | ||
| 20260507080025 | 0 | 0.0 | 0.0 | 0.00 | 0.65 | 0.00 | 1006.9 | ||
| 20260507074524 | 0 | 0.0 | 0.0 | 0.00 | 0.65 | 0.00 | 1007.1 | ||
| 20260507073026 | 0 | 0.0 | 0.0 | 0.00 | 0.65 | 0.00 | 1007.0 | ||
| 20260507071527 | 0 | 0.0 | 0.0 | 0.00 | 0.65 | 0.00 | 1006.7 | ||
| 20260507070027 | 0 | 0.0 | 0.0 | 0.00 | 0.65 | 0.00 | 1006.6 | ||
| 20260507064525 | 43 | 260 | 0.0 | 0.9 | 0.00 | 0.65 | 0.00 | 95 | 1006.3 |
| 20260507063026 | 43 | 277 | 0.9 | 1.7 | 0.00 | 0.65 | 0.00 | 95 | 1006.8 |
| 20260507061526 | 43 | 10 | 0.0 | 1.7 | 0.00 | 0.65 | 0.00 | 95 | 1006.7 |
| 20260507060021 | 43 | 352 | 0.0 | 1.7 | 0.00 | 0.65 | 0.00 | 94 | 1006.9 |
| 20260507054503 | 44 | 321 | 0.0 | 1.7 | 0.00 | 0.65 | 0.00 | 94 | 1007.1 |
| 20260507053004 | 43 | 5 | 0.0 | 1.7 | 0.00 | 0.65 | 0.00 | 94 | 1007.3 |
| 20260507051508 | 44 | 242 | 0.0 | 1.7 | 0.00 | 0.65 | 0.00 | 94 | 1007.0 |
| 20260507050034 | 44 | 9 | 0.9 | 2.6 | 0.00 | 0.65 | 0.00 | 93 | 1006.9 |
| 20260507044518 | 44 | 298 | 0.0 | 1.7 | 0.00 | 0.65 | 0.00 | 94 | 1006.8 |
| 20260507043004 | 45 | 298 | 0.9 | 1.7 | 0.00 | 0.65 | 0.00 | 94 | 1006.8 |
| 20260507041511 | 45 | 289 | 0.0 | 1.7 | 0.00 | 0.65 | 0.00 | 94 | 1007.1 |
| 20260507040013 | 45 | 311 | 0.0 | 1.7 | 0.00 | 0.65 | 0.00 | 94 | 1006.9 |
| 20260507034515 | 45 | 289 | 0.0 | 1.7 | 0.01 | 0.65 | 0.65 | 93 | 1006.7 |
| 20260507033020 | 45 | 260 | 0.0 | 1.7 | 0.02 | 0.65 | 0.65 | 92 | 1006.9 |
| 20260507031504 | 45 | 295 | 1.7 | 5.2 | 0.04 | 0.65 | 0.65 | 92 | 1007.0 |
| 20260507030013 | 45 | 248 | 0.9 | 3.5 | 0.04 | 0.65 | 0.65 | 92 | 1006.9 |
| 20260507024516 | 46 | 319 | 0.9 | 1.7 | 0.04 | 0.64 | 0.64 | 93 | 1007.0 |
| 20260507023016 | 46 | 285 | 0.0 | 2.6 | 0.04 | 0.63 | 0.63 | 93 | 1007.0 |
| 20260507021529 | 47 | 268 | 0.9 | 3.5 | 0.04 | 0.61 | 0.61 | 93 | 1007.1 |
| 20260507020009 | 47 | 183 | 0.0 | 2.6 | 0.05 | 0.61 | 0.61 | 92 | 1007.1 |
| 20260507014512 | 48 | 253 | 0.9 | 3.5 | 0.04 | 0.60 | 0.60 | 92 | 1006.9 |
| 20260507013012 | 49 | 292 | 2.6 | 6.1 | 0.04 | 0.58 | 0.58 | 92 | 1006.5 |
| 20260507011523 | 49 | 240 | 0.9 | 5.2 | 0.02 | 0.57 | 0.57 | 93 | 1006.5 |
| 20260507010032 | 49 | 317 | 0.9 | 4.3 | 0.01 | 0.56 | 0.56 | 92 | 1005.9 |
| 20260507004507 | 50 | 315 | 0.9 | 8.7 | 0.01 | 0.56 | 0.56 | 92 | 1005.7 |
| 20260507003015 | 51 | 302 | 1.7 | 7.0 | 0.02 | 0.55 | 0.55 | 92 | 1005.5 |
| 20260507001516 | 52 | 305 | 0.0 | 1.7 | 0.08 | 0.55 | 0.55 | 92 | 1005.1 |
| 20260507000026 | 52 | 232 | 0.9 | 7.0 | 0.13 | 0.55 | 0.55 | 92 | 1004.9 |
| 20260506234524 | 53 | 265 | 1.7 | 5.2 | 0.13 | 0.55 | 0.55 | 92 | 1004.5 |
| 20260506233007 | 54 | 334 | 1.7 | 7.0 | 0.12 | 0.52 | 0.52 | 90 | 1004.2 |
| 20260506231518 | 58 | 269 | 0.0 | 1.7 | 0.08 | 0.47 | 0.47 | 94 | 1003.8 |
| 20260506230022 | 58 | 254 | 0.0 | 1.7 | 0.04 | 0.42 | 0.42 | 94 | 1003.5 |
| 20260506224524 | 58 | 123 | 0.9 | 4.3 | 0.05 | 0.42 | 0.42 | 94 | 1003.7 |
| 20260506223025 | 58 | 223 | 0.9 | 1.7 | 0.04 | 0.41 | 0.41 | 94 | 1003.8 |
| 20260506221512 | 58 | 209 | 0.0 | 2.6 | 0.02 | 0.39 | 0.39 | 94 | 1003.7 |
| 20260506220018 | 58 | 240 | 0.0 | 5.2 | 0.01 | 0.38 | 0.38 | 93 | 1003.6 |
| 20260506214523 | 58 | 130 | 0.9 | 3.5 | 0.01 | 0.37 | 0.37 | 93 | 1003.5 |
| 20260506213027 | 59 | 248 | 1.7 | 6.1 | 0.02 | 0.38 | 0.37 | 93 | 1003.5 |
| 20260506211539 | 59 | 63 | 0.9 | 5.2 | 0.05 | 0.38 | 0.37 | 94 | 1003.5 |
| 20260506210030 | 59 | 161 | 0.9 | 4.3 | 0.06 | 0.38 | 0.37 | 94 | 1003.6 |
| 20260506204523 | 59 | 128 | 0.9 | 3.5 | 0.05 | 0.37 | 0.36 | 94 | 1003.7 |
| 20260506203023 | 59 | 191 | 0.9 | 4.3 | 0.04 | 0.36 | 0.35 | 94 | 1003.9 |
| 20260506201510 | 59 | 350 | 0.9 | 6.1 | 0.01 | 0.33 | 0.32 | 93 | 1003.9 |
| 20260506200014 | 59 | 164 | 1.7 | 3.5 | 0.03 | 0.32 | 0.31 | 93 | 1004.0 |
| 20260506194518 | 59 | 255 | 0.9 | 3.5 | 0.06 | 0.32 | 0.31 | 93 | 1004.1 |
| 20260506193036 | 59 | 169 | 0.9 | 5.2 | 0.10 | 0.32 | 0.31 | 94 | 1004.4 |
| 20260506191526 | 59 | 237 | 0.0 | 1.7 | 0.11 | 0.32 | 0.31 | 94 | 1004.6 |
| 20260506190013 | 59 | 171 | 0.0 | 2.6 | 0.10 | 0.29 | 0.28 | 94 | 1004.8 |
| 20260506184516 | 59 | 229 | 0.0 | 4.3 | 0.09 | 0.26 | 0.25 | 93 | 1004.7 |
| 20260506183022 | 59 | 157 | 1.7 | 3.5 | 0.08 | 0.22 | 0.21 | 93 | 1004.9 |
| 20260506181536 | 59 | 277 | 1.7 | 6.1 | 0.11 | 0.21 | 0.20 | 93 | 1005.1 |
| 20260506180010 | 59 | 210 | 0.9 | 5.2 | 0.13 | 0.19 | 0.18 | 93 | 1005.6 |
| 20260506174515 | 59 | 195 | 0.0 | 5.2 | 0.13 | 0.17 | 0.16 | 93 | 1005.9 |
| 20260506173024 | 59 | 131 | 1.7 | 7.0 | 0.12 | 0.14 | 0.13 | 92 | 1005.8 |
| 20260506171528 | 59 | 205 | 2.6 | 7.8 | 0.09 | 0.10 | 0.09 | 91 | 1005.9 |
| 20260506170026 | 60 | 181 | 0.0 | 2.6 | 0.05 | 0.06 | 0.05 | 91 | 1005.9 |
| 20260506164511 | 60 | 268 | 0.9 | 2.6 | 0.03 | 0.04 | 0.03 | 88 | 1006.1 |
| 20260506163024 | 61 | 202 | 0.9 | 4.3 | 0.01 | 0.02 | 0.01 | 85 | 1006.2 |
| 20260506161521 | 61 | 292 | 0.9 | 4.3 | 0.00 | 0.01 | 0.00 | 85 | 1006.2 |
| 20260506160024 | 61 | 178 | 0.9 | 5.2 | 0.00 | 0.01 | 0.00 | 84 | 1006.5 |
| 20260506154529 | 61 | 236 | 0.9 | 3.5 | 0.00 | 0.01 | 0.00 | 83 | 1006.8 |
| 20260506153021 | 61 | 270 | 1.7 | 7.0 | 0.00 | 0.01 | 0.00 | 83 | 1007.1 |
| 20260506151519 | 61 | 244 | 1.7 | 7.0 | 0.00 | 0.01 | 0.00 | 80 | 1007.3 |
| 20260506150022 | 61 | 187 | 1.7 | 6.1 | 0.00 | 0.01 | 0.00 | 80 | 1007.4 |
| 20260506144526 | 61 | 252 | 0.9 | 6.1 | 0.00 | 0.01 | 0.00 | 80 | 1007.2 |
| 20260506143029 | 61 | 289 | 0.9 | 6.1 | 0.00 | 0.01 | 0.00 | 80 | 1007.0 |
| 20260506141517 | 60 | 254 | 2.6 | 7.8 | 0.00 | 0.01 | 0.00 | 81 | 1007.2 |
| 20260506140023 | 61 | 246 | 1.7 | 8.7 | 0.00 | 0.01 | 0.00 | 80 | 1007.2 |
| 20260506134525 | 60 | 236 | 1.7 | 5.2 | 0.00 | 0.01 | 0.00 | 81 | 1007.2 |
| 20260506133025 | 59 | 223 | 0.0 | 7.0 | 0.00 | 0.01 | 0.00 | 82 | 1007.3 |
| 20260506131528 | 59 | 203 | 0.0 | 5.2 | 0.00 | 0.01 | 0.00 | 83 | 1007.6 |
| 20260506130022 | 59 | 159 | 0.0 | 6.1 | 0.00 | 0.01 | 0.00 | 83 | 1007.9 |
| 20260506124522 | 58 | 259 | 3.5 | 6.1 | 0.00 | 0.01 | 0.00 | 84 | 1007.7 |
| 20260506123026 | 58 | 240 | 2.6 | 7.8 | 0.00 | 0.01 | 0.00 | 84 | 1007.4 |
| 20260506121525 | 58 | 92 | 0.9 | 5.2 | 0.00 | 0.01 | 0.00 | 84 | 1007.2 |
| 20260506120023 | 57 | 360 | 0.9 | 7.0 | 0.00 | 0.01 | 0.00 | 85 | 1007.5 |
| 20260506114524 | 57 | 256 | 0.9 | 3.5 | 0.00 | 0.01 | 0.00 | 86 | 1007.6 |
| 20260506113006 | 57 | 225 | 1.7 | 4.3 | 0.00 | 0.01 | 0.00 | 86 | 1007.6 |
| 20260506111511 | 56 | 205 | 1.7 | 6.1 | 0.00 | 0.01 | 0.00 | 88 | 1007.7 |